Weather History for KDEQ - May, 2014

Change the Weather History Date:

Thursday, May 22, 2014

  Actual Average Record
Temperature  
Mean Temperature 73 °F 71 °F  
Max Temperature 86 °F 82 °F 93 °F (2005)
Min Temperature 60 °F 61 °F 44 °F (1981)
Degree Days  
Heating Degree Days 0 0  
Month to date heating degree days 51 21  
Since 1 July heating degree days 3464 3042  
Cooling Degree Days 8 7  
Month to date cooling degree days 93 100  
Year to date cooling degree days 131 147  
Growing Degree Days 22 (Base 50)    
Moisture  
Dew Point 63 °F    
Average Humidity 74    
Maximum Humidity 100    
Minimum Humidity 48    
Precipitation  
Precipitation 0.00 in 0.15 in 1.60 in (1984)
Month to date precipitation 5.04 4.36  
Year to date precipitation 13.44 19.93  
Snow  
Snow 0.00 in - - ()
Month to date snowfall 0.0  
Since 1 July snowfall 1.2  
Snow Depth 0.00 in    
Sea Level Pressure  
Sea Level Pressure 30.08 in    
Wind  
Wind Speed 2 mph (SSE)    
Max Wind Speed 10 mph    
Max Gust Speed 17 mph    
Visibility 5 miles    
Events Fog    
T = Trace of Precipitation, MM = Missing Value Source: NWS Daily Summary

Daily Weather History Graph

Daily Weather History Graph

Search for Another Location

Airport or City:

Trip Planner

Search our weather history database for the weather conditions in past years. The results will help you decide how hot, cold, wet, or windy it might be!

Date:

Astronomy

May. 22, 2014 Rise Set
Actual Time 6:11 AM CDT 8:17 PM CDT
Civil Twilight 5:43 AM CDT 8:45 PM CDT
Nautical Twilight 5:09 AM CDT 9:19 PM CDT
Astronomical Twilight 4:32 AM CDT 9:56 PM CDT
Moon 2:13 AM CDT (5/22) 2:22 PM CDT (5/22)
Length of Visible Light 15h 02m
Length of Day
14h 05m
Last Quarter, 37% of the Moon is Illuminated
May 22
Last Quarter
May 28
New
Jun 5
First Quarter
Jun 12
Full
Jun 19
Last Quarter

Hourly Weather History & Observations

Time (CDT) Temp. Heat Index Dew Point Humidity Pressure Visibility Wind Dir Wind Speed Gust Speed Precip Events Conditions
12:17 AM 64.0 °F - 63.0 °F 96% 30.07 in 0.5 mi Calm Calm - N/A Fog Fog
12:29 AM 64.0 °F - 63.0 °F 96% 30.07 in 2.0 mi Calm Calm - N/A   Clear
12:39 AM 64.0 °F - 64.0 °F 100% 30.07 in 4.0 mi Calm Calm - N/A   Clear
12:53 AM 64.0 °F - 63.0 °F 96% 30.06 in 4.0 mi Calm Calm - N/A   Clear
1:01 AM 63.0 °F - 62.1 °F 97% 30.07 in 1.8 mi Calm Calm - N/A   Clear
1:10 AM 63.0 °F - 62.1 °F 97% 30.06 in 0.5 mi Calm Calm - N/A Fog Fog
1:23 AM 63.0 °F - 62.1 °F 97% 30.06 in 1.5 mi Calm Calm - N/A   Clear
1:48 AM 62.6 °F - 62.6 °F 100% 30.06 in 0.8 mi Calm Calm - N/A   Clear
1:53 AM 63.0 °F - 62.1 °F 97% 30.05 in 1.0 mi Calm Calm - N/A   Clear
2:05 AM 62.1 °F - 62.1 °F 100% 30.06 in 0.8 mi Calm Calm - N/A   Partly Cloudy
2:24 AM 63.0 °F - 62.1 °F 97% 30.06 in 2.5 mi Calm Calm - N/A   Mostly Cloudy
2:31 AM 63.0 °F - 62.1 °F 97% 30.06 in 3.0 mi Calm Calm - N/A   Overcast
2:53 AM 63.0 °F - 63.0 °F 100% 30.05 in 4.0 mi Calm Calm - N/A   Mostly Cloudy
3:53 AM 62.1 °F - 61.0 °F 96% 30.04 in 1.2 mi Calm Calm - N/A   Partly Cloudy
4:02 AM 62.1 °F - 61.0 °F 96% 30.06 in 0.5 mi Calm Calm - N/A Fog Fog
4:19 AM 62.1 °F - 61.0 °F 96% 30.06 in 1.2 mi Calm Calm - N/A   Clear
4:36 AM 62.1 °F - 61.0 °F 96% 30.06 in 1.2 mi Calm Calm - N/A   Clear
4:53 AM 61.0 °F - 60.1 °F 97% 30.06 in 1.0 mi Calm Calm - N/A   Mostly Cloudy
5:04 AM 61.0 °F - 60.1 °F 97% 30.07 in 3.0 mi Calm Calm - N/A   Scattered Clouds
5:44 AM 61.0 °F - 60.1 °F 97% 30.08 in 1.5 mi Calm Calm - N/A   Clear
5:53 AM 60.1 °F - 60.1 °F 100% 30.07 in 0.5 mi Calm Calm - N/A Fog Fog
6:04 AM 60.1 °F - 59.0 °F 96% 30.08 in 0.2 mi Calm Calm - N/A Fog Fog
6:33 AM 60.1 °F - 60.1 °F 100% 30.09 in 1.0 mi Calm Calm - N/A   Clear
6:42 AM 60.1 °F - 60.1 °F 100% 30.10 in 0.5 mi Calm Calm - N/A Fog Fog
6:53 AM 61.0 °F - 60.1 °F 97% 30.09 in 2.0 mi Calm Calm - N/A   Clear
7:24 AM 64.0 °F - 63.0 °F 96% 30.11 in 4.0 mi East 3.5 mph - N/A   Clear
7:53 AM 68.0 °F - 64.9 °F 90% 30.11 in 4.0 mi Calm Calm - N/A   Clear
8:53 AM 73.0 °F - 68.0 °F 84% 30.12 in 9.0 mi Calm Calm - N/A   Partly Cloudy
9:53 AM 73.9 °F - 66.0 °F 76% 30.12 in 8.0 mi Variable 3.5 mph - N/A   Scattered Clouds
10:02 AM 75.9 °F - 66.0 °F 71% 30.13 in 9.0 mi Calm Calm - N/A   Mostly Cloudy
10:10 AM 75.0 °F - 66.0 °F 73% 30.14 in 9.0 mi SSW 4.6 mph - N/A   Scattered Clouds
10:49 AM 75.2 °F - 66.2 °F 73% 30.13 in 9.0 mi NNW 3.5 mph - N/A   Mostly Cloudy
10:53 AM 77.0 °F - 66.0 °F 69% 30.12 in 9.0 mi NW 3.5 mph - N/A   Mostly Cloudy
11:43 AM 79.0 °F - 66.0 °F 64% 30.14 in 10.0 mi NNE 3.5 mph - N/A   Mostly Cloudy
11:53 AM 82.0 °F 83.8 °F 64.9 °F 56% 30.12 in 10.0 mi Calm Calm - N/A   Mostly Cloudy
12:53 PM 81.0 °F 82.2 °F 63.0 °F 54% 30.11 in 10.0 mi Calm Calm - N/A   Partly Cloudy
1:53 PM 82.9 °F 83.7 °F 62.1 °F 49% 30.10 in 10.0 mi SE 4.6 mph - N/A   Partly Cloudy
2:53 PM 84.9 °F 85.4 °F 62.1 °F 46% 30.08 in 10.0 mi Variable 3.5 mph - N/A   Scattered Clouds
4:53 PM 84.9 °F 85.9 °F 63.0 °F 48% 30.04 in 10.0 mi SW 6.9 mph - N/A   Clear
5:53 PM 84.0 °F 84.5 °F 62.1 °F 47% 30.02 in 10.0 mi SSW 4.6 mph - N/A   Partly Cloudy
6:53 PM 82.9 °F 84.0 °F 63.0 °F 51% 30.00 in 10.0 mi South 3.5 mph - N/A   Clear
7:53 PM 79.0 °F - 63.0 °F 58% 30.00 in 9.0 mi SE 3.5 mph - N/A   Clear
8:53 PM 71.1 °F - 66.0 °F 84% 30.01 in 9.0 mi Calm Calm - N/A   Clear
9:53 PM 70.0 °F - 66.0 °F 87% 30.06 in 10.0 mi Calm Calm - N/A   Partly Cloudy
10:53 PM 68.0 °F - 66.0 °F 93% 30.08 in 7.0 mi Calm Calm - N/A   Clear
11:53 PM 66.0 °F - 64.9 °F 96% 30.06 in 5.0 mi ENE 3.5 mph - N/A   Clear